Location: New Plymouth
(39.0670°S, 174.0830°E)
Time: 01:55:29
(UTC+13:00)

ADEOS Rocket - Pass Details

Date: 24 January 2019
Orbit: 859 x 1307 km, 98.7° (Epoch: 18 February)

Event Time Altitude Azimuth Distance (km) Brightness Sun altitude
Exits shadow 23:05:50 18° 337° (NNW) 2,041 4.4 -22.0°
Maximum altitude 23:09:29 38° 278° (W) 1,319 3.9 -22.4°
Drops below altitude 10° 23:14:37 10° 210° (SSW) 2,526 6.3 -23.0°
Sets 23:17:11 0° 202° (SSW) 3,477 7.2 -23.3°
